HULIANWANG JISHU SHIYAN* (58692 NORAD) Tracking and Keplerian Element Data

This shows tracking and keplerian element data for the satellite.

Feedback or suggestion? Click here.




ElementValue
Catalog58692
NameHULIANWANG JISHU SHIYAN*
Epoch Orbit198
Epoch Day13.24436916
Epoch Year2024
RAAN12.5183
Inclination49.9992
Eccentricity0.0004732
Argument of Perigee335.5165
Mean Anonmoly24.5507
Mean Motion13.86963019
Decay Rate2.6E-07
L11 58692U 23212B 24013.24436916 .00000026 00000+0 14561-3 0 9992
L22 58692 49.9992 12.5183 0004732 335.5165 24.5507 13.86963019 1985



Live tracking and technical data element details for HULIANWANG JISHU SHIYAN* (NORAD 58692). HULIANWANG JISHU SHIYAN* can be tracked NOW for your location showing map with azimuth and elevation plus other details from your city location.







IsCatalogInMostPopularTable: catalog: 58692, numindb: 23
Update: records affected: 1



GetName: 58692 HULIANWANG JISHU SHIYAN*

Hit Count: updated at: Wed, 17 Apr 2024 03:47:26 GMT